Miscellaneous Local Product
Issued by NWS Hastings, NE

Home | Current Version | Previous Version | Graphics & Text | Print | Product List | Glossary On
Versions: 1 2 3 4 5 6 7 8 9 10 11 12 13 14 15 16 17 18 19 20 21 22 23 24 25 26 27 28 29 30 31 32 33 34 35 36 37 38 39 40 41 42 43 44 45 46 47 48 49 50
000
AXUS43 KGID 310602
MISGRI

GID CWA HOURLY WEATHER ROUNDUP
NATIONAL WEATHER SERVICE HASTINGS NE
100 AM CDT MON AUG 31 2015

NOTE: "FAIR" INDICATES FEW OR NO CLOUDS BELOW 12,000 FEET WITH NO
SIGNIFICANT WEATHER AND/OR OBSTRUCTIONS TO VISIBILITY.

...SOUTH CENTRAL NEBRASKA...

CITY           SKY/WX    TMP DP  RH WIND       PRES   REMARKS
GRAND ISLAND   FAIR      66  64  93 S14       29.96S
HASTINGS       FAIR      66  63  90 S9        29.97R
KEARNEY        FAIR      64  61  88 S9        29.96R
ORD            CLEAR     66  63  90 S8        29.92R
YORK           CLOUDY    64  63  94 S6        29.97S
AURORA         FAIR      65  65  99 S8        29.96S
LEXINGTON      CLEAR     67  64  87 S12       29.95R
HOLDREGE       FAIR      65  62  92 S7        29.96S
HEBRON         FAIR      65  63  91 SE5       29.96F

...NEBRASKA PANHANDLE...

CITY           SKY/WX    TMP DP  RH WIND       PRES   REMARKS
CHADRON        MOCLDY    69  50  50 W5        29.80F
ALLIANCE       MOCLDY    75  50  41 S12       29.89R
SCOTTSBLUFF    CLOUDY    80  47  31 SW8       29.92R
SIDNEY         CLEAR     71  49  45 SW9       29.97S

...WESTERN AND NORTH CENTRAL NEBRASKA...

CITY           SKY/WX    TMP DP  RH WIND       PRES   REMARKS
VALENTINE      CLEAR     72  58  61 SW17      29.84R
AINSWORTH      CLEAR     69  59  71 S18G25    29.87S
ONEILL         CLEAR     67  65  93 S14       29.90R
BROKEN BOW     CLEAR     67  62  84 S10       29.94R
IMPERIAL       CLEAR     72  44  36 S17       29.93S
NORTH PLATTE   CLEAR     68  57  68 SE12      29.93R
MCCOOK         CLEAR     67  52  58 S9        29.94R

...EASTERN NEBRASKA...

CITY           SKY/WX    TMP DP  RH WIND       PRES   REMARKS
NORFOLK        FAIR      67  65  93 S15       29.93S
TEKAMAH        FOG       61  60  97 SW5       29.96S VSB 1/4
COLUMBUS       FAIR     N/A N/A N/A CALM      29.96S
ALBION         FAIR      65  62  89 SE7       29.95R
OMAHA EPPLEY   FAIR      68  66  93 S8        29.97S
OFFUTT AFB     CLEAR     62  62 100 E2        29.96F
MILLARD        FAIR      67  66  95 SE3       29.97S
LINCOLN        FAIR      66  65  96 S6        29.97S
NEBRASKA CITY  FAIR      68  67  98 CALM      29.97F
BEATRICE       FAIR      66  65  95 CALM      29.97F
FALLS CITY     FAIR      68  67  96 CALM      29.96F

...NORTHERN KANSAS...

CITY           SKY/WX    TMP DP  RH WIND       PRES   REMARKS
GOODLAND       CLEAR     64  47  53 S13       29.99R
HILL CITY      FAIR      67  60  78 S6        29.97R
NORTON         CLEAR     63  55  77 SE8       29.95S
PHILLIPSBURG   CLEAR     66  66 100 E5        29.96S
SMITH CENTER   CLEAR     64  63  94 E9        29.97S
HAYS           FAIR      64  55  72 SE6       29.97R
RUSSELL        FAIR      66  62  87 SE10      29.95S
CONCORDIA      FAIR      66  64  93 SE6       29.96F FOG
SALINA         FAIR      68  64  87 S5        29.95S
TOPEKA         FAIR      68  67  96 CALM      29.96S FOG



USA.gov is the U.S. government's official web portal to all federal, state and local government web resources and services.